Weather History for Salt Lake City, UT

Change the Weather History Date:

Thursday, December 12, 2013

  Actual Average Record
Temperature  
Mean Temperature 15 °F 30 °F  
Max Temperature 25 °F 38 °F 63 °F (2014)
Min Temperature 5 °F 23 °F -20 °F (1932)
Degree Days  
Heating Degree Days 50 35  
Month to date heating degree days 499 400  
Since 1 July heating degree days 1546 1618  
Cooling Degree Days 0 0  
Month to date cooling degree days 0 0  
Year to date cooling degree days 1768 1160  
Moisture  
Dew Point 8 °F    
Average Humidity 72    
Maximum Humidity 83    
Minimum Humidity 60    
Precipitation  
Precipitation 0.00 in 0.05 in 0.89 in (1937)
Month to date precipitation 0.62 0.56  
Year to date precipitation 10.59 15.25  
Snow  
Snow 0.00 in 0.50 in 4.00 in (1993)
Month to date snowfall 10.1 4.9  
Since 1 July snowfall 13.6 13.9  
Snow Depth 3.00 in    
Sea Level Pressure  
Sea Level Pressure 30.48 in    
Wind  
Wind Speed 3 mph (NNE)    
Max Wind Speed 8 mph    
Max Gust Speed 9 mph    
Visibility 7 miles    
Events      
T = Trace of Precipitation, MM = Missing Value Source: NWS Daily Summary

Daily Weather History Graph

Daily Weather History Graph

Search for Another Location

Airport:

Trip Planner

Search our weather history database for the weather conditions in past years. The results will help you decide how hot, cold, wet, or windy it might be!

Date:

Astronomy

Dec. 12, 2013 Rise Set
Actual Time 7:42 AM MST 5:00 PM MST
Civil Twilight 7:12 AM MST 5:31 PM MST
Nautical Twilight 6:37 AM MST 6:05 PM MST
Astronomical Twilight 6:04 AM MST 6:39 PM MST
Moon 2:10 PM MST (12/12) 3:08 AM MST (12/12)
Length of Visible Light 10h 19m
Length of Day
9h 17m
Waxing Gibbous, 81% of the Moon is Illuminated
Dec 12
Waxing Gibbous
Dec 17
Full
Dec 25
Last Quarter
Jan 1
New
Jan 7
First Quarter

Hourly Weather History & Observations

Time (MST) Temp. Windchill Dew Point Humidity Pressure Visibility Wind Dir Wind Speed Gust Speed Precip Events Conditions
12:53 AM 12.9 °F 5.2 °F 6.1 °F 74% 30.63 in 8.0 mi ESE 4.6 mph - N/A   Clear
1:53 AM 12.9 °F 5.2 °F 6.1 °F 74% 30.62 in 8.0 mi SE 4.6 mph - N/A   Clear
2:53 AM 12.0 °F 5.9 °F 5.0 °F 73% 30.62 in 8.0 mi East 3.5 mph - N/A   Clear
3:53 AM 10.9 °F - 6.1 °F 81% 30.63 in 8.0 mi Calm Calm - N/A   Clear
4:53 AM 8.1 °F - 1.9 °F 76% 30.64 in 8.0 mi Calm Calm - N/A   Clear
5:53 AM 9.0 °F - 3.0 °F 77% 30.64 in 8.0 mi Calm Calm - N/A   Scattered Clouds
6:53 AM 10.0 °F 3.6 °F 3.9 °F 76% 30.63 in 8.0 mi SE 3.5 mph - N/A   Clear
7:53 AM 10.9 °F 1.4 °F 5.0 °F 77% 30.63 in 9.0 mi SE 5.8 mph - N/A   Partly Cloudy
8:53 AM 14.0 °F 6.5 °F 7.0 °F 74% 30.61 in 9.0 mi SSE 4.6 mph - N/A   Partly Cloudy
9:53 AM 17.1 °F - 9.0 °F 71% 30.61 in 8.0 mi Calm Calm - N/A   Clear
10:53 AM 19.9 °F - 9.0 °F 62% 30.59 in 7.0 mi Calm Calm - N/A   Clear
11:53 AM 24.1 °F - 12.0 °F 60% 30.53 in 7.0 mi Calm Calm - N/A   Clear
12:53 PM 24.1 °F 17.0 °F 12.0 °F 60% 30.49 in 6.0 mi North 5.8 mph - N/A   Haze
1:53 PM 25.0 °F 17.1 °F 14.0 °F 63% 30.46 in 7.0 mi North 6.9 mph - N/A   Clear
2:53 PM 24.1 °F 17.0 °F 14.0 °F 65% 30.44 in 8.0 mi North 5.8 mph - N/A   Partly Cloudy
3:53 PM 23.0 °F 15.8 °F 12.9 °F 65% 30.42 in 8.0 mi WNW 5.8 mph - N/A   Partly Cloudy
4:53 PM 19.0 °F 12.3 °F 10.0 °F 68% 30.43 in 9.0 mi NNW 4.6 mph - N/A   Scattered Clouds
5:53 PM 18.0 °F - 10.9 °F 74% 30.42 in 8.0 mi Calm Calm - N/A   Scattered Clouds
6:53 PM 12.0 °F 1.5 °F 7.0 °F 80% 30.44 in 7.0 mi North 6.9 mph - N/A   Partly Cloudy
7:25 PM 15.8 °F - 10.4 °F 79% 30.26 in 6.0 mi Calm Calm - N/A   Haze
7:53 PM 16.0 °F - 10.0 °F 77% 30.41 in 6.0 mi Calm Calm - N/A   Haze
8:53 PM 16.0 °F - 10.0 °F 77% 30.38 in 5.0 mi Calm Calm - N/A   Haze
9:00 PM 12.2 °F - 8.6 °F 85% 30.23 in 5.0 mi Calm Calm - N/A   Scattered Clouds
9:53 PM 15.1 °F 9.4 °F 10.0 °F 80% 30.37 in 5.0 mi WNW 3.5 mph - N/A   Haze
10:32 PM 12.2 °F 6.1 °F 6.8 °F 79% 30.23 in 5.0 mi North 3.5 mph - N/A   Haze
10:53 PM 15.1 °F - 8.1 °F 74% 30.35 in 5.0 mi Calm Calm - N/A   Haze
11:47 PM 12.2 °F 2.9 °F 8.6 °F 85% 30.22 in 1.0 mi North 5.8 mph - N/A   Haze
11:53 PM 12.9 °F 3.8 °F 8.1 °F 81% 30.34 in 0.5 mi North 5.8 mph - N/A   Haze